User: anonymous   Login
Location: Wawayanda State Park
(41.1833°N, 74.4333°W)
Time: 08:50:24
(UTC-04:00)
Language:

Landsat 7 - Orbit

View from above orbital plane
View from above orbital plane
View from above satellite
View from above satellite

Ground track
Ground track

The orbit data is extracted from the following two-line orbital elements,

1 25682U 99020A   15245.18397388 -.00000328  00000-0 -62650-4 0  9995
2 25682  98.2130 314.0742 0001134  87.2066 272.9193 14.57112810871354
Epoch (UTC): 02 September 2015 04:24:55
Eccentricity: 0.0001134
inclination: 98.2130°
perigee height: 702 km
apogee height: 703 km
right ascension of ascending node: 314.0742°
argument of perigee: 87.2066°
revolutions per day: 14.57112810
mean anomaly at epoch: 272.9193°
orbit number at epoch: 87135

The dashed part of the orbit path shows where the satellite is in the earth's shadow,  

DLR